| time (UTC) | temp F | wind direction | speed knots | gust knots | rain 1hr in | rain 24hr in | rain mn in | humidity % | barometer mb |
| 20260506193442 | 48 | 358 | 5.2 | 6.1 | 0.00 | 0.00 | 0.00 | 46 | 1015.6 |
| 20260506192939 | 47 | 335 | 4.3 | 6.1 | 0.00 | 0.00 | 0.00 | 51 | 1016.1 |
| 20260506192436 | 47 | 108 | 1.7 | 1.7 | 0.00 | 0.00 | 0.00 | 47 | 1015.9 |
| 20260506191932 | 46 | 300 | 7.0 | 8.7 | 0.00 | 0.00 | 0.00 | 47 | 1015.9 |
| 20260506191429 | 47 | 275 | 5.2 | 7.0 | 0.00 | 0.00 | 0.00 | 48 | 1016.1 |
| 20260506190926 | 45 | 357 | 2.6 | 2.6 | 0.00 | 0.00 | 0.00 | 48 | 1016.1 |
| 20260506190422 | 46 | 351 | 6.1 | 7.8 | 0.00 | 0.00 | 0.00 | 47 | 1016.2 |
| 20260506185919 | 48 | 310 | 5.2 | 7.8 | 0.00 | 0.00 | 0.00 | 49 | 1016.2 |
| 20260506185417 | 48 | 347 | 7.0 | 9.6 | 0.00 | 0.00 | 0.00 | 50 | 1016.1 |
| 20260506184914 | 47 | 293 | 4.3 | 5.2 | 0.00 | 0.00 | 0.00 | 50 | 1016.3 |
| 20260506184410 | 44 | 23 | 4.3 | 6.1 | 0.00 | 0.00 | 0.00 | 49 | 1016.4 |
| 20260506183908 | 46 | 342 | 3.5 | 5.2 | 0.00 | 0.00 | 0.00 | 49 | 1016.7 |
| 20260506183403 | 45 | 352 | 7.8 | 11.3 | 0.00 | 0.00 | 0.00 | 50 | 1016.7 |
| 20260506182900 | 46 | 316 | 7.0 | 9.6 | 0.00 | 0.00 | 0.00 | 49 | 1016.9 |
| 20260506182357 | 46 | 281 | 5.2 | 7.0 | 0.00 | 0.00 | 0.00 | 52 | 1016.8 |
| 20260506181854 | 45 | 296 | 4.3 | 6.1 | 0.00 | 0.00 | 0.00 | 50 | 1016.9 |
| 20260506181353 | 45 | 315 | 3.5 | 5.2 | 0.00 | 0.00 | 0.00 | 56 | 1016.9 |
| 20260506180849 | 44 | 333 | 1.7 | 1.7 | 0.00 | 0.00 | 0.00 | 50 | 1017.1 |
| 20260506180345 | 44 | 301 | 6.1 | 7.0 | 0.00 | 0.00 | 0.00 | 50 | 1017.1 |
| 20260506175843 | 45 | 303 | 1.7 | 1.7 | 0.00 | 0.00 | 0.00 | 49 | 1017.2 |
| 20260506175339 | 44 | 291 | 6.1 | 7.0 | 0.00 | 0.00 | 0.00 | 49 | 1017.2 |
| 20260506174836 | 45 | 305 | 6.1 | 6.1 | 0.00 | 0.00 | 0.00 | 49 | 1017.1 |
| 20260506174333 | 44 | 259 | 3.5 | 4.3 | 0.00 | 0.00 | 0.00 | 50 | 1017.2 |
| 20260506173831 | 44 | 272 | 3.5 | 4.3 | 0.00 | 0.00 | 0.00 | 50 | 1017.4 |
| 20260506173327 | 44 | 346 | 2.6 | 2.6 | 0.00 | 0.00 | 0.00 | 51 | 1017.3 |
| 20260506172825 | 43 | 348 | 3.5 | 4.3 | 0.00 | 0.00 | 0.00 | 50 | 1017.5 |
| 20260506172321 | 43 | 269 | 4.3 | 5.2 | 0.00 | 0.00 | 0.00 | 52 | 1017.7 |
| 20260506171819 | 43 | 283 | 9.6 | 9.6 | 0.00 | 0.00 | 0.00 | 50 | 1017.6 |
| 20260506171316 | 43 | 290 | 5.2 | 6.1 | 0.00 | 0.00 | 0.00 | 49 | 1017.7 |
| 20260506170813 | 43 | 345 | 7.8 | 8.7 | 0.00 | 0.00 | 0.00 | 51 | 1017.6 |
| 20260506170309 | 42 | 333 | 6.1 | 7.0 | 0.00 | 0.00 | 0.00 | 51 | 1017.7 |
| 20260506165808 | 42 | 336 | 2.6 | 2.6 | 0.00 | 0.00 | 0.00 | 50 | 1017.9 |
| 20260506165306 | 42 | 328 | 5.2 | 6.1 | 0.00 | 0.00 | 0.00 | 51 | 1017.7 |
| 20260506164802 | 42 | 345 | 6.1 | 7.0 | 0.00 | 0.00 | 0.00 | 51 | 1017.9 |
| 20260506164259 | 42 | 303 | 3.5 | 4.3 | 0.00 | 0.00 | 0.00 | 51 | 1018.0 |
| 20260506163755 | 42 | 359 | 7.0 | 8.7 | 0.00 | 0.00 | 0.00 | 52 | 1017.9 |
| 20260506163250 | 42 | 295 | 4.3 | 5.2 | 0.00 | 0.00 | 0.00 | 51 | 1018.0 |
| 20260506162746 | 42 | 298 | 4.3 | 5.2 | 0.00 | 0.00 | 0.00 | 52 | 1018.0 |
| 20260506162244 | 42 | 250 | 3.5 | 4.3 | 0.00 | 0.00 | 0.00 | 52 | 1018.2 |
| 20260506161742 | 41 | 348 | 3.5 | 4.3 | 0.00 | 0.00 | 0.00 | 55 | 1018.1 |
| 20260506161239 | 41 | 12 | 2.6 | 2.6 | 0.00 | 0.00 | 0.00 | 54 | 1018.2 |
| 20260506160736 | 41 | 293 | 4.3 | 6.1 | 0.00 | 0.00 | 0.00 | 53 | 1018.1 |
| 20260506160233 | 40 | 307 | 6.1 | 7.0 | 0.00 | 0.00 | 0.00 | 54 | 1018.1 |
| 20260506155731 | 41 | 348 | 2.6 | 2.6 | 0.00 | 0.00 | 0.00 | 53 | 1018.1 |
| 20260506155228 | 41 | 306 | 5.2 | 6.1 | 0.00 | 0.00 | 0.00 | 54 | 1018.3 |
| 20260506153335 | 39 | 310 | 4.3 | 5.2 | 0.00 | 0.00 | 0.00 | 53 | 1018.2 |
| 20260506152832 | 41 | 273 | 4.3 | 5.2 | 0.00 | 0.00 | 0.00 | 53 | 1018.1 |
| 20260506152329 | 42 | 197 | 0.9 | 0.9 | 0.00 | 0.00 | 0.00 | 54 | 1018.2 |
| 20260506151828 | 41 | 16 | 2.6 | 4.3 | 0.00 | 0.00 | 0.00 | 54 | 1018.2 |
| 20260506151324 | 39 | 324 | 2.6 | 4.3 | 0.00 | 0.00 | 0.00 | 55 | 1018.5 |
| 20260506150821 | 39 | 252 | 2.6 | 2.6 | 0.00 | 0.00 | 0.00 | 54 | 1018.3 |
| 20260506150318 | 40 | 354 | 1.7 | 2.6 | 0.00 | 0.00 | 0.00 | 54 | 1018.5 |
| 20260506145815 | 39 | 298 | 2.6 | 2.6 | 0.00 | 0.00 | 0.00 | 54 | 1018.3 |
| 20260506145311 | 40 | 245 | 3.5 | 4.3 | 0.00 | 0.00 | 0.00 | 57 | 1018.3 |
| 20260506144809 | 40 | 321 | 3.5 | 4.3 | 0.00 | 0.00 | 0.00 | 57 | 1018.6 |
| 20260506144305 | 38 | 190 | 3.5 | 4.3 | 0.00 | 0.00 | 0.00 | 58 | 1018.9 |
| 20260506143804 | 37 | 327 | 2.6 | 2.6 | 0.00 | 0.00 | 0.00 | 59 | 1018.6 |
| 20260506143300 | 37 | 213 | 2.6 | 2.6 | 0.00 | 0.00 | 0.00 | 60 | 1018.6 |
| 20260506142759 | 37 | 281 | 2.6 | 2.6 | 0.00 | 0.00 | 0.00 | 61 | 1018.8 |
| 20260506142256 | 37 | 223 | 2.6 | 2.6 | 0.00 | 0.00 | 0.00 | 62 | 1018.6 |
| 20260506141755 | 37 | 241 | 3.5 | 4.3 | 0.00 | 0.00 | 0.00 | 61 | 1018.6 |
| 20260506141253 | 36 | 238 | 2.6 | 2.6 | 0.00 | 0.00 | 0.00 | 64 | 1018.7 |
| 20260506140750 | 36 | 222 | 2.6 | 2.6 | 0.00 | 0.00 | 0.00 | 67 | 1018.7 |
| 20260506140247 | 35 | 188 | 2.6 | 2.6 | 0.00 | 0.00 | 0.00 | 67 | 1018.3 |
| 20260506135744 | 35 | 200 | 0.9 | 1.7 | 0.00 | 0.00 | 0.00 | 69 | 1018.3 |
| 20260506135240 | 34 | 212 | 1.7 | 1.7 | 0.00 | 0.00 | 0.00 | 68 | 1018.7 |
| 20260506134736 | 34 | 186 | 0.9 | 0.9 | 0.00 | 0.00 | 0.00 | 70 | 1018.7 |
| 20260506134233 | 33 | 34 | 0.9 | 0.9 | 0.00 | 0.00 | 0.00 | 72 | 1018.5 |
| 20260506133731 | 32 | 335 | 1.7 | 1.7 | 0.00 | 0.00 | 0.00 | 73 | 1018.5 |
| 20260506133227 | 32 | 212 | 1.7 | 1.7 | 0.00 | 0.00 | 0.00 | 74 | 1018.7 |
| 20260506132724 | 32 | 174 | 0.9 | 0.9 | 0.00 | 0.00 | 0.00 | 76 | 1018.6 |
| 20260506132221 | 32 | 224 | 1.7 | 1.7 | 0.00 | 0.00 | 0.00 | 76 | 1018.6 |
| 20260506131719 | 31 | 211 | 0.9 | 1.7 | 0.00 | 0.00 | 0.00 | 77 | 1018.6 |
| 20260506131215 | 31 | 164 | 0.9 | 0.9 | 0.00 | 0.00 | 0.00 | 78 | 1018.6 |
| 20260506130712 | 31 | 211 | 0.9 | 1.7 | 0.00 | 0.00 | 0.00 | 79 | 1018.6 |
| 20260506130209 | 30 | 231 | 0.9 | 0.9 | 0.00 | 0.00 | 0.00 | 80 | 1018.7 |
| 20260506125706 | 30 | 164 | 0.0 | 0.0 | 0.00 | 0.00 | 0.00 | 80 | 1018.3 |
| 20260506125204 | 30 | 229 | 0.9 | 0.9 | 0.00 | 0.00 | 0.00 | 80 | 1018.6 |
| 20260506124702 | 30 | 227 | 0.9 | 0.9 | 0.00 | 0.00 | 0.00 | 78 | 1018.3 |
| 20260506124200 | 30 | 19 | 0.9 | 0.9 | 0.00 | 0.00 | 0.00 | 76 | 1018.5 |
| 20260506123657 | 29 | 54 | 0.0 | 0.0 | 0.00 | 0.00 | 0.00 | 76 | 1018.1 |
| 20260506123156 | 29 | 53 | 0.0 | 0.0 | 0.00 | 0.00 | 0.00 | 77 | 1018.1 |
| 20260506122652 | 29 | 54 | 0.0 | 0.0 | 0.00 | 0.00 | 0.00 | 77 | 1018.1 |
| 20260506122150 | 28 | 53 | 0.0 | 0.9 | 0.00 | 0.00 | 0.00 | 77 | 1018.1 |
| 20260506121647 | 28 | 53 | 0.0 | 0.9 | 0.00 | 0.00 | 0.00 | 77 | 1018.2 |
| 20260506121143 | 28 | 33 | 0.0 | 0.0 | 0.00 | 0.00 | 0.00 | 77 | 1018.0 |
| 20260506120642 | 28 | 27 | 0.9 | 0.9 | 0.00 | 0.00 | 0.00 | 76 | 1018.1 |
| 20260506120138 | 28 | 16 | 0.9 | 0.9 | 0.00 | 0.00 | 0.00 | 76 | 1017.9 |
| 20260506115637 | 28 | 15 | 0.9 | 0.9 | 0.00 | 0.00 | 0.00 | 76 | 1018.1 |
| 20260506115135 | 28 | 36 | 0.9 | 0.9 | 0.00 | 0.00 | 0.00 | 76 | 1017.8 |
| 20260506114632 | 28 | 345 | 0.9 | 1.7 | 0.00 | 0.00 | 0.00 | 75 | 1018.1 |
| 20260506114130 | 28 | 99 | 0.0 | 0.0 | 0.00 | 0.00 | 0.00 | 76 | 1017.7 |
| 20260506113628 | 27 | 99 | 0.9 | 0.9 | 0.00 | 0.00 | 0.00 | 77 | 1017.9 |
| 20260506113125 | 27 | 99 | 0.0 | 0.0 | 0.00 | 0.00 | 0.00 | 77 | 1017.8 |
| 20260506112621 | 27 | 99 | 0.9 | 0.9 | 0.00 | 0.00 | 0.00 | 77 | 1018.1 |
| 20260506112119 | 27 | 100 | 0.0 | 0.0 | 0.00 | 0.00 | 0.00 | 78 | 1018.0 |
| 20260506111616 | 26 | 100 | 0.0 | 0.0 | 0.00 | 0.00 | 0.00 | 79 | 1017.9 |
| 20260506111114 | 26 | 100 | 0.0 | 0.0 | 0.00 | 0.00 | 0.00 | 79 | 1017.5 |
| 20260506110611 | 26 | 100 | 0.0 | 0.0 | 0.00 | 0.00 | 0.00 | 79 | 1017.8 |
| 20260506110108 | 26 | 150 | 0.0 | 0.0 | 0.00 | 0.00 | 0.00 | 79 | 1017.9 |
| 20260506105604 | 26 | 150 | 0.0 | 0.0 | 0.00 | 0.00 | 0.00 | 79 | 1017.7 |
| 20260506105102 | 26 | 174 | 0.9 | 0.9 | 0.00 | 0.00 | 0.00 | 79 | 1017.7 |
| 20260506104600 | 26 | 150 | 0.0 | 0.0 | 0.00 | 0.00 | 0.00 | 78 | 1017.8 |
| 20260506104057 | 26 | 159 | 0.0 | 0.9 | 0.00 | 0.00 | 0.00 | 78 | 1017.7 |
| 20260506103554 | 26 | 150 | 0.0 | 0.0 | 0.00 | 0.00 | 0.00 | 77 | 1017.5 |
| 20260506103051 | 26 | 160 | 0.0 | 0.0 | 0.00 | 0.00 | 0.00 | 77 | 1017.6 |
| 20260506102549 | 27 | 184 | 0.9 | 0.9 | 0.00 | 0.00 | 0.00 | 76 | 1017.9 |
| 20260506102046 | 27 | 162 | 0.9 | 0.9 | 0.00 | 0.00 | 0.00 | 75 | 1017.7 |
| 20260506101543 | 27 | 106 | 0.9 | 0.9 | 0.00 | 0.00 | 0.00 | 74 | 1017.7 |
| 20260506101040 | 28 | 103 | 0.0 | 0.9 | 0.00 | 0.00 | 0.00 | 73 | 1017.7 |
| 20260506100538 | 28 | 22 | 1.7 | 1.7 | 0.00 | 0.00 | 0.00 | 72 | 1018.0 |
| 20260506100036 | 28 | 20 | 1.7 | 1.7 | 0.00 | 0.00 | 0.00 | 73 | 1017.8 |
| 20260506095535 | 28 | 26 | 0.9 | 0.9 | 0.00 | 0.00 | 0.00 | 73 | 1017.6 |
| 20260506095030 | 28 | 26 | 0.9 | 0.9 | 0.00 | 0.00 | 0.00 | 73 | 1017.6 |
| 20260506094528 | 28 | 22 | 0.9 | 0.9 | 0.00 | 0.00 | 0.00 | 73 | 1017.9 |
| 20260506094026 | 28 | 26 | 0.9 | 1.7 | 0.00 | 0.00 | 0.00 | 73 | 1017.8 |
| 20260506093524 | 28 | 27 | 0.9 | 0.9 | 0.00 | 0.00 | 0.00 | 73 | 1017.7 |
| 20260506093021 | 28 | 28 | 0.9 | 0.9 | 0.00 | 0.00 | 0.00 | 74 | 1017.7 |
| 20260506092519 | 27 | 34 | 0.9 | 0.9 | 0.00 | 0.00 | 0.00 | 75 | 1017.8 |
| 20260506092015 | 27 | 30 | 0.9 | 0.9 | 0.00 | 0.00 | 0.00 | 74 | 1017.7 |
| 20260506091514 | 28 | 23 | 1.7 | 1.7 | 0.00 | 0.00 | 0.00 | 74 | 1017.8 |
| 20260506091011 | 28 | 13 | 1.7 | 1.7 | 0.00 | 0.00 | 0.00 | 73 | 1017.8 |
| 20260506090509 | 28 | 25 | 0.9 | 1.7 | 0.00 | 0.00 | 0.00 | 73 | 1017.6 |
| 20260506090005 | 28 | 24 | 0.9 | 1.7 | 0.00 | 0.00 | 0.00 | 73 | 1017.7 |
| 20260506085502 | 27 | 20 | 1.7 | 1.7 | 0.00 | 0.00 | 0.00 | 74 | 1017.6 |
| 20260506084958 | 27 | 29 | 0.9 | 0.9 | 0.00 | 0.00 | 0.00 | 75 | 1017.4 |
| 20260506084455 | 26 | 36 | 0.0 | 0.9 | 0.00 | 0.00 | 0.00 | 76 | 1017.6 |
| 20260506083951 | 26 | 35 | 0.0 | 0.0 | 0.00 | 0.00 | 0.00 | 76 | 1017.6 |
| 20260506083448 | 26 | 35 | 0.0 | 0.0 | 0.00 | 0.00 | 0.00 | 75 | 1017.6 |
| 20260506082946 | 27 | 35 | 0.0 | 0.0 | 0.00 | 0.00 | 0.00 | 74 | 1017.7 |
| 20260506082442 | 28 | 20 | 0.9 | 0.9 | 0.00 | 0.00 | 0.00 | 73 | 1017.4 |
| 20260506081938 | 28 | 359 | 0.9 | 0.9 | 0.00 | 0.00 | 0.00 | 73 | 1017.5 |
| 20260506081436 | 28 | 1 | 0.9 | 1.7 | 0.00 | 0.00 | 0.00 | 75 | 1017.6 |
| 20260506080934 | 27 | 60 | 0.0 | 0.0 | 0.00 | 0.00 | 0.00 | 74 | 1017.4 |
| 20260506080430 | 28 | 60 | 0.0 | 0.0 | 0.00 | 0.00 | 0.00 | 73 | 1017.4 |
| 20260506073415 | 30 | 29 | 0.0 | 0.0 | 0.00 | 0.00 | 0.00 | 68 | 1017.3 |
| 20260506072912 | 30 | 29 | 0.0 | 0.9 | 0.00 | 0.00 | 0.00 | 67 | 1017.4 |
| 20260506072409 | 30 | 23 | 0.9 | 0.9 | 0.00 | 0.00 | 0.00 | 67 | 1017.6 |
| 20260506071907 | 30 | 20 | 0.9 | 0.9 | 0.00 | 0.00 | 0.00 | 68 | 1017.5 |
| 20260506071405 | 30 | 15 | 0.9 | 0.9 | 0.00 | 0.00 | 0.00 | 69 | 1017.5 |
| 20260506070901 | 29 | 38 | 0.0 | 0.9 | 0.00 | 0.00 | 0.00 | 71 | 1017.6 |
| 20260506070358 | 29 | 52 | 0.0 | 0.0 | 0.00 | 0.00 | 0.00 | 71 | 1017.3 |
| 20260506062335 | 30 | 55 | 0.9 | 0.9 | 0.00 | 0.00 | 0.00 | 68 | 1017.4 |
| 20260506061831 | 30 | 38 | 0.0 | 0.0 | 0.00 | 0.00 | 0.00 | 67 | 1017.3 |
| 20260506061328 | 30 | 64 | 0.0 | 0.0 | 0.00 | 0.00 | 0.00 | 68 | 1017.4 |
| 20260506060826 | 29 | 64 | 0.0 | 0.0 | 0.00 | 0.00 | 0.00 | 68 | 1017.5 |
| 20260506060324 | 29 | 64 | 0.0 | 0.0 | 0.00 | 0.00 | 0.00 | 67 | 1017.5 |
| 20260506051255 | 32 | 31 | 0.9 | 0.9 | 0.00 | 0.00 | 0.00 | 61 | 1017.3 |
| 20260506050754 | 32 | 49 | 0.9 | 0.9 | 0.00 | 0.00 | 0.00 | 61 | 1017.3 |
| 20260506050251 | 32 | 44 | 0.9 | 1.7 | 0.00 | 0.00 | 0.00 | 62 | 1017.2 |
| 20260506044741 | 32 | 1 | 0.9 | 1.7 | 0.00 | 0.00 | 0.00 | 62 | 1017.2 |
| 20260506044238 | 32 | 49 | 0.9 | 0.9 | 0.00 | 0.00 | 0.00 | 62 | 1017.1 |
| 20260506043736 | 31 | 26 | 0.9 | 0.9 | 0.00 | 0.00 | 0.00 | 62 | 1017.2 |
| 20260506043233 | 31 | 14 | 0.9 | 1.7 | 0.00 | 0.00 | 0.00 | 62 | 1017.0 |
| 20260506042732 | 32 | 357 | 0.9 | 1.7 | 0.00 | 0.00 | 0.00 | 61 | 1017.0 |
| 20260506042230 | 33 | 51 | 0.9 | 1.7 | 0.00 | 0.00 | 0.00 | 60 | 1017.0 |
| 20260506041728 | 33 | 53 | 0.9 | 1.7 | 0.00 | 0.00 | 0.00 | 60 | 1017.1 |
| 20260506041225 | 32 | 53 | 0.9 | 1.7 | 0.00 | 0.00 | 0.00 | 61 | 1017.0 |
| 20260506040722 | 31 | 65 | 0.9 | 0.9 | 0.00 | 0.00 | 0.00 | 62 | 1016.8 |
| 20260506040219 | 32 | 65 | 0.9 | 0.9 | 0.00 | 0.00 | 0.00 | 62 | 1017.0 |
| 20260506035716 | 32 | 65 | 0.9 | 0.9 | 0.00 | 0.00 | 0.00 | 61 | 1017.0 |
| 20260506035213 | 33 | 65 | 0.9 | 0.9 | 0.00 | 0.00 | 0.00 | 60 | 1016.9 |
| 20260506034709 | 32 | 59 | 0.9 | 0.9 | 0.00 | 0.00 | 0.00 | 61 | 1017.0 |
| 20260506034207 | 32 | 52 | 0.0 | 0.9 | 0.00 | 0.00 | 0.00 | 62 | 1016.9 |
| 20260506033704 | 33 | 50 | 0.0 | 0.0 | 0.00 | 0.00 | 0.00 | 61 | 1016.8 |
| 20260506033201 | 34 | 42 | 0.0 | 0.0 | 0.00 | 0.00 | 0.00 | 57 | 1016.9 |
| 20260506032658 | 34 | 36 | 0.0 | 0.9 | 0.00 | 0.00 | 0.00 | 57 | 1016.8 |
| 20260506032154 | 34 | 21 | 0.9 | 0.9 | 0.00 | 0.00 | 0.00 | 58 | 1016.9 |
| 20260506031651 | 34 | 21 | 0.9 | 0.9 | 0.00 | 0.00 | 0.00 | 58 | 1016.7 |
| 20260506031148 | 35 | 18 | 0.9 | 0.9 | 0.00 | 0.00 | 0.00 | 57 | 1017.0 |
| 20260506030647 | 35 | 34 | 0.9 | 0.9 | 0.00 | 0.00 | 0.00 | 57 | 1016.7 |
| 20260506030144 | 35 | 14 | 1.7 | 1.7 | 0.00 | 0.00 | 0.00 | 56 | 1016.8 |
| 20260506025640 | 35 | 19 | 2.6 | 2.6 | 0.00 | 0.00 | 0.00 | 56 | 1016.7 |
| 20260506025136 | 35 | 32 | 1.7 | 1.7 | 0.00 | 0.00 | 0.00 | 56 | 1016.6 |
| 20260506024634 | 36 | 12 | 1.7 | 1.7 | 0.00 | 0.00 | 0.00 | 56 | 1016.6 |
| 20260506024129 | 36 | 49 | 0.9 | 0.9 | 0.00 | 0.00 | 0.00 | 56 | 1016.3 |
| 20260506023626 | 36 | 41 | 0.9 | 1.7 | 0.00 | 0.00 | 0.00 | 55 | 1016.6 |
| 20260506023123 | 36 | 21 | 1.7 | 1.7 | 0.00 | 0.00 | 0.00 | 55 | 1016.3 |
| 20260506022621 | 36 | 8 | 2.6 | 2.6 | 0.00 | 0.00 | 0.00 | 55 | 1016.2 |
| 20260506022119 | 36 | 19 | 1.7 | 1.7 | 0.00 | 0.00 | 0.00 | 54 | 1016.4 |
| 20260506021616 | 36 | 12 | 1.7 | 1.7 | 0.00 | 0.00 | 0.00 | 55 | 1016.0 |
| 20260506021113 | 36 | 30 | 1.7 | 2.6 | 0.00 | 0.00 | 0.00 | 55 | 1016.0 |
| 20260506020610 | 36 | 30 | 2.6 | 2.6 | 0.00 | 0.00 | 0.00 | 55 | 1016.1 |
| 20260506020108 | 36 | 18 | 1.7 | 1.7 | 0.00 | 0.00 | 0.00 | 55 | 1016.2 |
| 20260506015605 | 36 | 23 | 1.7 | 1.7 | 0.00 | 0.00 | 0.00 | 56 | 1016.2 |
| 20260506015101 | 36 | 21 | 2.6 | 2.6 | 0.00 | 0.00 | 0.00 | 56 | 1016.0 |
| 20260506014559 | 36 | 28 | 0.9 | 0.9 | 0.00 | 0.00 | 0.00 | 55 | 1015.7 |
| 20260506014054 | 36 | 25 | 1.7 | 1.7 | 0.00 | 0.00 | 0.00 | 55 | 1015.8 |
| 20260506013553 | 37 | 29 | 0.9 | 0.9 | 0.00 | 0.00 | 0.00 | 54 | 1015.8 |
| 20260506013049 | 37 | 0 | 2.6 | 2.6 | 0.00 | 0.00 | 0.00 | 53 | 1015.8 |
| 20260506012545 | 38 | 342 | 2.6 | 2.6 | 0.00 | 0.00 | 0.00 | 53 | 1015.8 |
| 20260506012042 | 39 | 9 | 2.6 | 2.6 | 0.00 | 0.00 | 0.00 | 52 | 1015.8 |
| 20260506011541 | 39 | 1 | 4.3 | 6.1 | 0.00 | 0.00 | 0.00 | 51 | 1015.6 |
| 20260506011036 | 39 | 10 | 4.3 | 5.2 | 0.00 | 0.00 | 0.00 | 51 | 1015.4 |
| 20260506010531 | 40 | 352 | 4.3 | 5.2 | 0.00 | 0.00 | 0.00 | 50 | 1015.6 |
| 20260506010027 | 40 | 4 | 7.0 | 7.8 | 0.00 | 0.00 | 0.00 | 49 | 1015.5 |
| 20260506005524 | 40 | 309 | 6.1 | 7.0 | 0.00 | 0.00 | 0.00 | 50 | 1015.6 |
| 20260506005020 | 40 | 333 | 6.1 | 7.0 | 0.00 | 0.00 | 0.00 | 51 | 1015.5 |
| 20260506004518 | 39 | 355 | 5.2 | 6.1 | 0.00 | 0.00 | 0.00 | 50 | 1015.6 |
| 20260506004014 | 39 | 323 | 4.3 | 6.1 | 0.00 | 0.00 | 0.00 | 51 | 1015.5 |
| 20260506003510 | 39 | 310 | 3.5 | 4.3 | 0.00 | 0.00 | 0.00 | 51 | 1015.5 |
| 20260506003007 | 40 | 298 | 7.0 | 11.3 | 0.00 | 0.00 | 0.00 | 50 | 1015.7 |
| 20260506002503 | 40 | 336 | 7.0 | 11.3 | 0.00 | 0.00 | 0.00 | 49 | 1015.4 |
| 20260506001958 | 40 | 2 | 5.2 | 7.0 | 0.00 | 0.00 | 0.00 | 50 | 1015.3 |
| 20260506001455 | 41 | 337 | 6.1 | 7.8 | 0.00 | 0.00 | 0.00 | 49 | 1015.6 |
| 20260506000953 | 41 | 332 | 7.8 | 9.6 | 0.00 | 0.00 | 0.00 | 49 | 1015.2 |
| 20260506000450 | 41 | 332 | 7.0 | 7.8 | 0.00 | 0.00 | 0.00 | 49 | 1015.3 |
| 20260505235946 | 41 | 326 | 4.3 | 6.1 | 0.00 | 0.00 | 0.00 | 49 | 1015.3 |
| 20260505235445 | 41 | 312 | 7.0 | 8.7 | 0.00 | 0.00 | 0.00 | 49 | 1015.4 |
| 20260505234941 | 41 | 9 | 7.0 | 8.7 | 0.00 | 0.00 | 0.00 | 48 | 1015.5 |
| 20260505234439 | 41 | 336 | 7.0 | 7.8 | 0.00 | 0.00 | 0.00 | 49 | 1015.4 |
| 20260505233935 | 41 | 331 | 7.8 | 8.7 | 0.00 | 0.00 | 0.00 | 48 | 1015.3 |
| 20260505233433 | 41 | 312 | 5.2 | 7.0 | 0.00 | 0.00 | 0.00 | 49 | 1015.5 |
| 20260505232930 | 42 | 352 | 5.2 | 7.0 | 0.00 | 0.00 | 0.00 | 49 | 1015.4 |
| 20260505232429 | 41 | 348 | 7.0 | 9.6 | 0.00 | 0.00 | 0.00 | 48 | 1015.5 |
| 20260505231925 | 42 | 312 | 9.6 | 13.0 | 0.00 | 0.00 | 0.00 | 48 | 1015.3 |
| 20260505231422 | 42 | 336 | 4.3 | 6.1 | 0.00 | 0.00 | 0.00 | 49 | 1015.4 |
| 20260505230920 | 42 | 2 | 4.3 | 5.2 | 0.00 | 0.00 | 0.00 | 49 | 1015.3 |
| 20260505230418 | 41 | 309 | 7.8 | 8.7 | 0.00 | 0.00 | 0.00 | 48 | 1015.2 |
| 20260505225914 | 42 | 309 | 5.2 | 7.8 | 0.00 | 0.00 | 0.00 | 48 | 1015.2 |
| 20260505225411 | 41 | 308 | 6.1 | 7.8 | 0.00 | 0.00 | 0.00 | 48 | 1015.3 |
| 20260505224907 | 41 | 325 | 9.6 | 12.2 | 0.00 | 0.00 | 0.00 | 47 | 1015.0 |
| 20260505224404 | 42 | 316 | 7.0 | 8.7 | 0.00 | 0.00 | 0.00 | 48 | 1015.0 |
| 20260505223901 | 42 | 311 | 9.6 | 12.2 | 0.00 | 0.00 | 0.00 | 48 | 1015.1 |
| 20260505223358 | 42 | 306 | 3.5 | 5.2 | 0.00 | 0.00 | 0.00 | 49 | 1015.0 |
| 20260505222854 | 42 | 315 | 8.7 | 9.6 | 0.00 | 0.00 | 0.00 | 48 | 1015.0 |
| 20260505222350 | 42 | 339 | 9.6 | 12.2 | 0.00 | 0.00 | 0.00 | 49 | 1015.2 |
| 20260505221847 | 42 | 311 | 4.3 | 5.2 | 0.00 | 0.00 | 0.00 | 50 | 1015.1 |
| 20260505221344 | 42 | 324 | 7.8 | 8.7 | 0.00 | 0.00 | 0.00 | 50 | 1015.2 |
| 20260505220841 | 42 | 317 | 5.2 | 6.1 | 0.00 | 0.00 | 0.00 | 50 | 1015.0 |
| 20260505220338 | 41 | 328 | 7.0 | 7.8 | 0.00 | 0.00 | 0.00 | 50 | 1015.0 |
| 20260505215836 | 42 | 328 | 9.6 | 13.0 | 0.00 | 0.00 | 0.00 | 49 | 1015.3 |
| 20260505215334 | 42 | 337 | 7.0 | 8.7 | 0.00 | 0.00 | 0.00 | 50 | 1015.1 |
| 20260505214832 | 42 | 295 | 5.2 | 7.0 | 0.00 | 0.00 | 0.00 | 49 | 1015.0 |
| 20260505214329 | 42 | 304 | 9.6 | 12.2 | 0.00 | 0.00 | 0.00 | 48 | 1015.0 |
| 20260505213826 | 42 | 297 | 12.2 | 13.0 | 0.00 | 0.00 | 0.00 | 47 | 1015.0 |
| 20260505213324 | 42 | 312 | 5.2 | 6.1 | 0.00 | 0.00 | 0.00 | 49 | 1015.2 |
| 20260505212820 | 42 | 319 | 9.6 | 12.2 | 0.00 | 0.00 | 0.00 | 48 | 1015.1 |
| 20260505212317 | 42 | 292 | 7.8 | 11.3 | 0.00 | 0.00 | 0.00 | 49 | 1015.1 |
| 20260505211812 | 42 | 330 | 4.3 | 6.1 | 0.00 | 0.00 | 0.00 | 49 | 1015.3 |
| 20260505211311 | 41 | 283 | 8.7 | 9.6 | 0.00 | 0.00 | 0.00 | 49 | 1015.1 |
| 20260505210807 | 42 | 349 | 4.3 | 5.2 | 0.00 | 0.00 | 0.00 | 50 | 1015.0 |
| 20260505210304 | 42 | 306 | 7.8 | 9.6 | 0.00 | 0.00 | 0.00 | 49 | 1015.0 |
| 20260505205801 | 42 | 304 | 5.2 | 6.1 | 0.00 | 0.00 | 0.00 | 49 | 1015.0 |
| 20260505205259 | 42 | 335 | 6.1 | 7.8 | 0.00 | 0.00 | 0.00 | 50 | 1014.9 |
| 20260505204755 | 42 | 292 | 7.8 | 9.6 | 0.00 | 0.00 | 0.00 | 48 | 1015.1 |
| 20260505204253 | 42 | 340 | 7.8 | 8.7 | 0.00 | 0.00 | 0.00 | 48 | 1015.2 |
| 20260505203750 | 42 | 314 | 10.4 | 13.9 | 0.00 | 0.00 | 0.00 | 48 | 1015.1 |
| 20260505203247 | 42 | 319 | 9.6 | 13.0 | 0.00 | 0.00 | 0.00 | 49 | 1014.9 |
| 20260505202743 | 43 | 327 | 9.6 | 12.2 | 0.00 | 0.00 | 0.00 | 46 | 1014.9 |
| 20260505202239 | 42 | 314 | 5.2 | 5.2 | 0.00 | 0.00 | 0.00 | 47 | 1015.0 |
| 20260505201736 | 43 | 281 | 11.3 | 13.9 | 0.00 | 0.00 | 0.00 | 47 | 1014.9 |
| 20260505201234 | 43 | 305 | 9.6 | 14.8 | 0.00 | 0.00 | 0.00 | 46 | 1014.9 |
| 20260505200732 | 43 | 309 | 6.1 | 7.8 | 0.00 | 0.00 | 0.00 | 47 | 1014.6 |
| 20260505200229 | 43 | 305 | 10.4 | 15.6 | 0.00 | 0.00 | 0.00 | 46 | 1014.8 |
| 20260505195724 | 44 | 297 | 12.2 | 14.8 | 0.00 | 0.00 | 0.00 | 46 | 1014.6 |
| 20260505195222 | 44 | 304 | 10.4 | 13.0 | 0.00 | 0.00 | 0.00 | 46 | 1014.6 |
| 20260505194719 | 43 | 290 | 5.2 | 9.6 | 0.00 | 0.00 | 0.00 | 48 | 1014.6 |
| 20260505194215 | 43 | 11 | 7.8 | 11.3 | 0.00 | 0.00 | 0.00 | 47 | 1015.0 |
| 20260505193711 | 42 | 303 | 11.3 | 14.8 | 0.00 | 0.00 | 0.00 | 46 | 1014.8 |